• In Uzbekistan
  • List of Countries
  • For 7 days
  • Water Temperature
  • Satellite Maps
  • Weather Map
  • Weather Widgets
  • user-avatar
    Login

    Hourly Weather Soma Bey

    Today, 19 November, Sunday

    Time Temperature Precipitation Wind Pressure Humidity
    00:00 +25°C° 0.1 mm 1 mps 748 mmHg 84%
    01:00 +25°C° 0.1 mm 1 mps 748 mmHg 84%
    02:00 +22°C° 0 mm 0 mps 748 mmHg 86%
    03:00 +24°C° 0.1 mm 1 mps 748 mmHg 86%
    04:00 +23°C° 0.1 mm 1 mps 748 mmHg 85%
    05:00 +23°C° 0.1 mm 1 mps 748 mmHg 85%
    06:00 +24°C° 0.1 mm 1 mps 748 mmHg 82%
    07:00 +25°C° 0.1 mm 2 mps 748 mmHg 79%
    08:00 +26°C° 0 mm 2 mps 749 mmHg 81%
    09:00 +27°C° 0 mm 3 mps 749 mmHg 74%
    10:00 +28°C° 0 mm 3 mps 749 mmHg 67%
    11:00 +29°C° 0 mm 3 mps 749 mmHg 61%
    12:00 +29°C° 0.1 mm 3 mps 748 mmHg 58%
    13:00 +30°C° 0.1 mm 4 mps 748 mmHg 54%
    14:00 +29°C° 0 mm 4 mps 748 mmHg 61%
    15:00 +29°C° 0.2 mm 4 mps 748 mmHg 63%
    16:00 +28°C° 0.2 mm 3 mps 748 mmHg 65%
    17:00 +27°C° 0.2 mm 2 mps 748 mmHg 66%
    18:00 +27°C° 0 mm 2 mps 748 mmHg 69%
    19:00 +26°C° 0 mm 2 mps 749 mmHg 72%
    20:00 +26°C° 0 mm 2 mps 749 mmHg 74%
    21:00 +25°C° 0 mm 3 mps 749 mmHg 76%
    22:00 +25°C° 0 mm 3 mps 749 mmHg 77%
    23:00 +25°C° 0 mm 3 mps 749 mmHg 78%

    Tomorrow, 20 November, Monday

    Time Temperature Precipitation Wind Pressure Humidity
    00:00 +24°C° 0 mm 3 mps 749 mmHg 78%
    01:00 +24°C° 0 mm 3 mps 749 mmHg 78%
    02:00 +22°C° 0 mm 3 mps 749 mmHg 78%
    03:00 +22°C° 0 mm 3 mps 749 mmHg 78%
    04:00 +22°C° 0 mm 3 mps 749 mmHg 77%
    05:00 +21°C° 0 mm 3 mps 749 mmHg 77%
    06:00 +22°C° 0 mm 3 mps 749 mmHg 71%
    07:00 +24°C° 0 mm 3 mps 749 mmHg 66%
    08:00 +25°C° 0 mm 4 mps 750 mmHg 61%
    09:00 +26°C° 0 mm 4 mps 750 mmHg 55%
    10:00 +27°C° 0 mm 4 mps 750 mmHg 49%
    11:00 +28°C° 0 mm 4 mps 750 mmHg 43%
    12:00 +29°C° 0 mm 5 mps 749 mmHg 39%
    13:00 +29°C° 0 mm 5 mps 749 mmHg 34%
    14:00 +30°C° 0 mm 6 mps 749 mmHg 30%
    15:00 +29°C° 0 mm 6 mps 749 mmHg 31%
    16:00 +28°C° 0 mm 6 mps 749 mmHg 32%
    17:00 +27°C° 0 mm 6 mps 749 mmHg 34%
    18:00 +26°C° 0 mm 6 mps 749 mmHg 35%
    19:00 +24°C° 0 mm 6 mps 749 mmHg 37%
    20:00 +23°C° 0 mm 5 mps 749 mmHg 39%
    21:00 +23°C° 0 mm 5 mps 749 mmHg 38%
    22:00 +22°C° 0 mm 5 mps 749 mmHg 38%
    23:00 +21°C° 0 mm 5 mps 750 mmHg 37%

    Day after tomorrow, 21 November, Tuesday

    Time Temperature Precipitation Wind Pressure Humidity
    00:00 +21°C° 0 mm 5 mps 750 mmHg 38%
    01:00 +20°C° 0 mm 5 mps 749 mmHg 38%
    02:00 +20°C° 0 mm 5 mps 749 mmHg 39%
    03:00 +19°C° 0 mm 5 mps 749 mmHg 41%
    04:00 +19°C° 0 mm 5 mps 749 mmHg 42%
    05:00 +17°C° 0 mm 5 mps 749 mmHg 44%
    06:00 +19°C° 0 mm 5 mps 750 mmHg 42%
    07:00 +20°C° 0 mm 5 mps 750 mmHg 41%
    08:00 +21°C° 0 mm 5 mps 751 mmHg 39%
    09:00 +22°C° 0 mm 5 mps 751 mmHg 36%
    10:00 +23°C° 0 mm 5 mps 751 mmHg 33%
    11:00 +25°C° 0 mm 5 mps 751 mmHg 30%
    12:00 +26°C° 0 mm 6 mps 750 mmHg 28%
    13:00 +26°C° 0 mm 6 mps 750 mmHg 27%
    14:00 +27°C° 0 mm 6 mps 749 mmHg 25%
    15:00 +26°C° 0 mm 6 mps 749 mmHg 28%
    16:00 +26°C° 0 mm 7 mps 749 mmHg 31%
    17:00 +24°C° 0 mm 7 mps 749 mmHg 34%
    18:00 +23°C° 0 mm 7 mps 749 mmHg 37%
    19:00 +23°C° 0 mm 7 mps 750 mmHg 41%
    20:00 +22°C° 0 mm 7 mps 750 mmHg 44%
    21:00 +21°C° 0 mm 6 mps 750 mmHg 46%
    22:00 +21°C° 0 mm 6 mps 750 mmHg 48%
    23:00 +20°C° 0 mm 6 mps 750 mmHg 50%

    22 November, Wednesday

    Time Temperature Precipitation Wind Pressure Humidity
    00:00 +19°C° 0 mm 6 mps 750 mmHg 53%
    01:00 +19°C° 0 mm 6 mps 750 mmHg 55%
    02:00 +19°C° 0 mm 6 mps 750 mmHg 57%
    03:00 +17°C° 0 mm 6 mps 750 mmHg 60%
    04:00 +17°C° 0 mm 6 mps 750 mmHg 62%
    05:00 +16°C° 0 mm 6 mps 750 mmHg 65%
    06:00 +17°C° 0 mm 6 mps 750 mmHg 63%
    07:00 +17°C° 0 mm 6 mps 751 mmHg 60%
    08:00 +19°C° 0 mm 6 mps 751 mmHg 58%
    09:00 +20°C° 0 mm 6 mps 751 mmHg 52%
    10:00 +21°C° 0 mm 6 mps 751 mmHg 46%
    11:00 +22°C° 0 mm 6 mps 751 mmHg 40%
    12:00 +23°C° 0 mm 6 mps 750 mmHg 37%
    13:00 +24°C° 0 mm 7 mps 750 mmHg 35%
    14:00 +24°C° 0 mm 7 mps 749 mmHg 32%
    15:00 +23°C° 0 mm 7 mps 749 mmHg 34%
    16:00 +23°C° 0 mm 8 mps 749 mmHg 36%
    17:00 +22°C° 0 mm 8 mps 749 mmHg 38%
    18:00 +21°C° 0 mm 7 mps 750 mmHg 40%
    19:00 +20°C° 0 mm 7 mps 750 mmHg 43%
    20:00 +20°C° 0 mm 7 mps 751 mmHg 45%
    21:00 +18°C° 0 mm 7 mps 751 mmHg 47%
    22:00 +17°C° 0 mm 6 mps 751 mmHg 48%
    23:00 +17°C° 0 mm 6 mps 751 mmHg 50%

    23 November, Thursday

    Time Temperature Precipitation Wind Pressure Humidity
    00:00 +16°C° 0 mm 6 mps 751 mmHg 51%
    01:00 +16°C° 0 mm 6 mps 751 mmHg 52%
    02:00 +15°C° 0 mm 6 mps 750 mmHg 53%
    03:00 +15°C° 0 mm 6 mps 750 mmHg 54%
    04:00 +15°C° 0 mm 6 mps 750 mmHg 55%
    05:00 +14°C° 0 mm 6 mps 750 mmHg 56%
    06:00 +15°C° 0 mm 6 mps 751 mmHg 52%
    07:00 +16°C° 0 mm 6 mps 751 mmHg 48%
    08:00 +17°C° 0 mm 6 mps 751 mmHg 45%
    09:00 +19°C° 0 mm 6 mps 751 mmHg 40%
    10:00 +21°C° 0 mm 6 mps 751 mmHg 36%
    11:00 +22°C° 0 mm 6 mps 751 mmHg 31%
    12:00 +23°C° 0 mm 6 mps 750 mmHg 30%
    13:00 +23°C° 0 mm 6 mps 750 mmHg 29%
    14:00 +24°C° 0 mm 6 mps 749 mmHg 28%
    15:00 +23°C° 0 mm 7 mps 749 mmHg 32%
    16:00 +22°C° 0 mm 7 mps 750 mmHg 36%
    17:00 +21°C° 0 mm 7 mps 750 mmHg 40%
    18:00 +20°C° 0 mm 6 mps 750 mmHg 44%
    19:00 +20°C° 0 mm 6 mps 750 mmHg 47%
    20:00 +19°C° 0 mm 6 mps 751 mmHg 50%
    21:00 +19°C° 0 mm 6 mps 751 mmHg 51%
    22:00 +17°C° 0 mm 6 mps 751 mmHg 52%
    23:00 +16°C° 0 mm 6 mps 751 mmHg 53%

    24 November, Friday

    Time Temperature Precipitation Wind Pressure Humidity
    00:00 +16°C° 0 mm 5 mps 750 mmHg 54%
    01:00 +16°C° 0 mm 5 mps 750 mmHg 55%
    02:00 +15°C° 0 mm 5 mps 750 mmHg 56%
    03:00 +15°C° 0 mm 5 mps 750 mmHg 58%
    04:00 +15°C° 0 mm 5 mps 750 mmHg 60%
    05:00 +14°C° 0 mm 5 mps 750 mmHg 61%
    06:00 +15°C° 0 mm 5 mps 751 mmHg 58%
    07:00 +16°C° 0 mm 5 mps 751 mmHg 55%
    08:00 +17°C° 0 mm 5 mps 751 mmHg 52%
    09:00 +20°C° 0 mm 5 mps 751 mmHg 48%
    10:00 +21°C° 0 mm 5 mps 751 mmHg 44%
    11:00 +22°C° 0 mm 5 mps 751 mmHg 40%
    12:00 +23°C° 0 mm 5 mps 751 mmHg 38%
    13:00 +23°C° 0 mm 5 mps 750 mmHg 37%
    14:00 +25°C° 0 mm 5 mps 750 mmHg 36%
    15:00 +23°C° 0 mm 5 mps 750 mmHg 39%
    16:00 +22°C° 0 mm 5 mps 750 mmHg 42%
    17:00 +21°C° 0 mm 5 mps 750 mmHg 46%
    18:00 +21°C° 0 mm 4 mps 751 mmHg 49%
    19:00 +20°C° 0 mm 4 mps 751 mmHg 51%
    20:00 +19°C° 0 mm 4 mps 751 mmHg 54%
    21:00 +19°C° 0 mm 4 mps 751 mmHg 55%
    22:00 +18°C° 0 mm 4 mps 751 mmHg 56%
    23:00 +18°C° 0 mm 4 mps 751 mmHg 56%
    Show more